This demonstration page uses our WeatherBlox Daily Observations layout. Learn more.

41.86663, -103.66717

Hourly Observations for January 24, 2021

Temp ( °F °C ) Dew Point ( °F °C ) Humidity (%) Winds ( mph kmh ) Pressure ( in mb ) Visibility ( mi km ) Precip ( " mm )
12:12 am 00:12 Cloudy 26 -3.3 22 -5.6 84 84 Calm 30.11 1020 9 14.48406 0 0
12:53 am 00:53 Cloudy 26 -3.3 22 -5.6 84 84 E 3 6 30.04 1017 10 16.0934 0 0
1:53 am 01:53 Cloudy with Light Snow 25 -3.9 21 -6.1 85 85 Calm 30.04 1017 5 8.0467 0.001 0.001
2:53 am 02:53 Cloudy 25 -3.9 21 -6.1 85 85 SE 6 9 30.04 1017 10 16.0934 0.001 0.001
3:53 am 03:53 Cloudy 25 -3.9 21 -6.1 85 85 SE 6 9 30.04 1017 10 16.0934 0 0
4:53 am 04:53 Cloudy 25 -3.9 21 -6.1 85 85 SE 6 9 30.02 1017 9 14.48406 0 0
5:53 am 05:53 Cloudy 24 -4.4 20 -6.7 84 84 SE 8 13 30.01 1016 10 16.0934 0 0
6:53 am 06:53 Cloudy 24 -4.4 20 -6.7 84 84 ESE 7 11 30.01 1016 10 16.0934 0 0
7:22 am 07:22 Partly Cloudy 18 -7.8 15 -9.4 88 88 ESE 10 17 30.14 1021 10 16.0934 0 0
7:53 am 07:53 Sunny 19 -7.2 15 -9.4 84 84 ESE 12 19 30.01 1016 10 16.0934 0 0
8:53 am 08:53 Sunny 24 -4.4 17 -8.3 75 75 SE 13 20 29.99 1016 10 16.0934 0 0
9:53 am 09:53 Sunny 28 -2.2 21 -6.1 75 75 SE 10 17 29.97 1015 10 16.0934 0 0
10:53 am 10:53 Partly Cloudy 32 0 23 -5 69 69 S 15 24 29.95 1014 10 16.0934 0 0
11:00 am 11:00 Mostly Cloudy 32 0 23 -5 69 69 S 13 20 29.97 1015 10 16.0934 0 0
11:37 am 11:37 Partly Cloudy 32 0 23 -5 69 69 S 16 26 29.94 1014 10 16.0934 0 0
11:53 am 11:53 Mostly Sunny 33 0.6 23 -5 66 66 SSE 16 26 29.89 1012 10 16.0934 0 0
12:30 pm 12:30 Mostly Cloudy 34 1.1 25 -3.9 70 70 S 15 24 29.88 1012 10 16.0934 0 0
12:53 pm 12:53 Partly Cloudy 33 0.6 23 -5 66 66 S 15 24 29.85 1011 10 16.0934 0 0
1:53 pm 13:53 Sunny 35 1.7 24 -4.4 64 64 S 13 20 29.82 1010 10 16.0934 0 0
2:24 pm 14:24 Mostly Cloudy 37 2.8 25 -3.9 62 62 S 12 19 29.81 1009 10 16.0934 0 0
2:53 pm 14:53 Cloudy 37 2.8 24 -4.4 59 59 S 15 24 29.8 1009 10 16.0934 0 0
3:42 pm 15:42 Partly Cloudy 34 1 23 -5 65 65 SSE 16 26 29.82 1010 10 16.0934 0 0
3:53 pm 15:53 Sunny 33 0.6 23 -5 66 66 SSE 14 22 29.8 1009 10 16.0934 0 0
4:53 pm 16:53 Sunny 30 -1.1 22 -5.6 72 72 SSE 8 13 29.8 1009 10 16.0934 0 0
5:53 pm 17:53 Clear 27 -2.8 21 -6.1 78 78 SE 7 11 29.83 1010 10 16.0934 0 0
6:53 pm 18:53 Clear 27 -2.8 20 -6.7 75 75 SE 8 13 29.83 1010 10 16.0934 0 0
7:53 pm 19:53 Clear 26 -3.3 20 -6.7 78 78 SE 7 11 29.83 1010 10 16.0934 0 0
8:53 pm 20:53 Clear 22 -5.6 17 -8.3 82 82 ESE 9 15 29.85 1011 10 16.0934 0 0
9:53 pm 21:53 Clear 22 -5.6 18 -7.8 85 85 E 9 15 29.83 1010 10 16.0934 0 0
10:53 pm 22:53 Clear 22 -5.6 17 -8.3 82 82 ESE 10 17 29.8 1009 10 16.0934 0 0
11:53 pm 23:53 Clear 21 -6.1 17 -8.3 85 85 ESE 9 15 29.78 1008 10 16.0934 0 0

Powered by AerisWeather